User: anonymous   Login
Location: St. Louis
(38.6270°N, 90.1994°W)
Time: 23:50:20
(UTC-06:00)
Language:

QB50P2 - Orbit

View from above orbital plane
View from above orbital plane
View from above satellite
View from above satellite

Ground track
Ground track

The orbit data is extracted from the following two-line orbital elements,

1 40032U 14033Y   22024.79793830  .00000790  00000-0  89342-4 0  9992
2 40032  97.9305 317.1588 0012023 160.8890 199.2780 14.89274996412751
Epoch (UTC): 24 January 2022 19:09:01
Eccentricity: 0.0012023
inclination: 97.9305°
perigee height: 592 km
apogee height: 608 km
right ascension of ascending node: 317.1588°
argument of perigee: 160.8890°
revolutions per day: 14.89274996
mean anomaly at epoch: 199.2780°
orbit number at epoch: 41275

The dashed part of the orbit path shows where the satellite is in the earth's shadow,  

DLR